| time (UTC) | temp F | wind direction | speed knots | gust knots | rain 1hr in | rain 24hr in | rain mn in | humidity % | barometer mb |
| 20260906121100 | 72 | 37 | 0.0 | 0.0 | 0.00 | 0.43 | 0.00 | 92 | 1012.7 |
| 20260906120600 | 72 | 37 | 0.0 | 0.0 | 0.00 | 0.43 | 0.00 | 92 | 1012.6 |
| 20260906120059 | 72 | 37 | 0.0 | 0.0 | 0.00 | 0.43 | 0.00 | 92 | 1012.6 |
| 20260906115559 | 72 | 37 | 0.0 | 0.0 | 0.00 | 0.43 | 0.00 | 92 | 1012.7 |
| 20260906115057 | 72 | 37 | 0.0 | 0.0 | 0.00 | 0.43 | 0.00 | 93 | 1012.5 |
| 20260906114611 | 72 | 37 | 0.0 | 0.0 | 0.00 | 0.43 | 0.00 | 93 | 1012.6 |
| 20260906114056 | 72 | 37 | 0.0 | 0.0 | 0.00 | 0.43 | 0.00 | 93 | 1012.5 |
| 20260906113555 | 72 | 37 | 0.0 | 0.9 | 0.00 | 0.43 | 0.00 | 93 | 1012.5 |
| 20260906113058 | 72 | 37 | 0.0 | 0.9 | 0.00 | 0.43 | 0.00 | 93 | 1012.3 |
| 20260906112554 | 72 | 38 | 0.0 | 0.0 | 0.00 | 0.43 | 0.00 | 93 | 1012.3 |
| 20260906112053 | 72 | 38 | 0.0 | 0.0 | 0.00 | 0.43 | 0.00 | 94 | 1012.2 |
| 20260906111554 | 72 | 38 | 0.0 | 0.0 | 0.00 | 0.43 | 0.00 | 94 | 1012.0 |
| 20260906111051 | 71 | 38 | 0.0 | 0.0 | 0.00 | 0.43 | 0.00 | 93 | 1012.1 |
| 20260906110553 | 71 | 38 | 0.0 | 0.0 | 0.00 | 0.43 | 0.00 | 94 | 1012.0 |
| 20260906110049 | 71 | 38 | 0.0 | 0.0 | 0.00 | 0.43 | 0.00 | 94 | 1011.9 |
| 20260906105550 | 71 | 38 | 0.0 | 0.0 | 0.00 | 0.43 | 0.00 | 94 | 1011.8 |
| 20260906105049 | 71 | 38 | 0.0 | 0.0 | 0.00 | 0.43 | 0.00 | 94 | 1011.6 |
| 20260906104548 | 71 | 38 | 0.0 | 0.0 | 0.00 | 0.43 | 0.00 | 94 | 1011.5 |
| 20260906104048 | 71 | 38 | 0.0 | 2.6 | 0.00 | 0.43 | 0.00 | 94 | 1011.5 |
| 20260906103548 | 71 | 37 | 0.0 | 2.6 | 0.00 | 0.43 | 0.00 | 95 | 1011.5 |
| 20260906103048 | 71 | 334 | 0.0 | 0.0 | 0.00 | 0.43 | 0.00 | 95 | 1011.5 |
| 20260906102547 | 71 | 334 | 0.0 | 0.0 | 0.00 | 0.43 | 0.00 | 95 | 1011.2 |
| 20260906102046 | 71 | 334 | 0.0 | 1.7 | 0.00 | 0.43 | 0.00 | 95 | 1011.0 |
| 20260906101547 | 71 | 334 | 0.0 | 1.7 | 0.00 | 0.43 | 0.00 | 95 | 1011.0 |
| 20260906101048 | 71 | 334 | 0.0 | 0.9 | 0.00 | 0.43 | 0.00 | 95 | 1011.3 |
| 20260906100546 | 71 | 334 | 0.0 | 0.9 | 0.00 | 0.43 | 0.00 | 95 | 1011.3 |
| 20260906100046 | 71 | 334 | 0.0 | 2.6 | 0.00 | 0.43 | 0.00 | 95 | 1011.2 |
| 20260906095545 | 71 | 330 | 0.9 | 2.6 | 0.00 | 0.43 | 0.00 | 95 | 1011.2 |
| 20260906095050 | 71 | 330 | 0.0 | 1.7 | 0.00 | 0.43 | 0.00 | 95 | 1011.2 |
| 20260906094545 | 71 | 330 | 0.0 | 0.9 | 0.00 | 0.43 | 0.00 | 95 | 1011.2 |
| 20260906094045 | 71 | 329 | 0.0 | 2.6 | 0.00 | 0.43 | 0.00 | 95 | 1011.2 |
| 20260906093545 | 71 | 329 | 0.0 | 2.6 | 0.00 | 0.43 | 0.00 | 95 | 1011.2 |
| 20260906093045 | 71 | 329 | 0.0 | 0.9 | 0.00 | 0.43 | 0.00 | 95 | 1011.1 |
| 20260906092545 | 71 | 329 | 0.0 | 0.0 | 0.00 | 0.43 | 0.00 | 95 | 1011.0 |
| 20260906092045 | 71 | 329 | 0.0 | 0.0 | 0.00 | 0.43 | 0.00 | 95 | 1011.1 |
| 20260906091545 | 71 | 329 | 0.0 | 0.0 | 0.00 | 0.43 | 0.00 | 95 | 1011.0 |
| 20260906091044 | 71 | 329 | 0.0 | 0.0 | 0.00 | 0.43 | 0.00 | 95 | 1011.0 |
| 20260906090544 | 71 | 329 | 0.0 | 0.0 | 0.00 | 0.43 | 0.00 | 95 | 1011.1 |
| 20260906090044 | 71 | 329 | 0.0 | 0.0 | 0.00 | 0.43 | 0.00 | 95 | 1011.0 |
| 20260906085543 | 71 | 329 | 0.0 | 1.7 | 0.00 | 0.43 | 0.00 | 96 | 1011.0 |
| 20260906085043 | 71 | 328 | 0.0 | 1.7 | 0.00 | 0.43 | 0.00 | 96 | 1010.9 |
| 20260906084544 | 71 | 328 | 0.0 | 0.0 | 0.00 | 0.43 | 0.00 | 96 | 1011.0 |
| 20260906084043 | 71 | 328 | 0.0 | 0.9 | 0.00 | 0.43 | 0.00 | 96 | 1011.1 |
| 20260906083543 | 71 | 328 | 0.0 | 0.9 | 0.00 | 0.43 | 0.00 | 96 | 1011.2 |
| 20260906083048 | 71 | 328 | 0.0 | 0.0 | 0.00 | 0.43 | 0.00 | 96 | 1011.2 |
| 20260906082543 | 71 | 328 | 0.0 | 0.0 | 0.00 | 0.43 | 0.00 | 96 | 1011.1 |
| 20260906082043 | 71 | 328 | 0.0 | 0.0 | 0.00 | 0.43 | 0.00 | 96 | 1011.3 |
| 20260906081548 | 71 | 328 | 0.0 | 0.0 | 0.00 | 0.43 | 0.00 | 96 | 1011.0 |
| 20260906081042 | 71 | 328 | 0.0 | 1.7 | 0.00 | 0.43 | 0.00 | 96 | 1011.0 |
| 20260906080542 | 71 | 328 | 0.0 | 1.7 | 0.00 | 0.43 | 0.00 | 96 | 1011.4 |
| 20260906080043 | 71 | 329 | 0.0 | 0.0 | 0.00 | 0.43 | 0.00 | 96 | 1011.3 |
| 20260906075541 | 71 | 329 | 0.0 | 0.0 | 0.00 | 0.43 | 0.00 | 96 | 1011.3 |
| 20260906075042 | 71 | 329 | 0.0 | 2.6 | 0.00 | 0.43 | 0.00 | 97 | 1011.0 |
| 20260906074558 | 71 | 329 | 0.0 | 2.6 | 0.00 | 0.43 | 0.00 | 97 | 1011.0 |
| 20260906074041 | 71 | 329 | 0.0 | 2.6 | 0.00 | 0.43 | 0.00 | 97 | 1011.1 |
| 20260906073542 | 71 | 329 | 0.0 | 2.6 | 0.00 | 0.43 | 0.00 | 97 | 1011.0 |
| 20260906073042 | 72 | 329 | 0.0 | 1.7 | 0.00 | 0.43 | 0.00 | 96 | 1011.1 |
| 20260906072542 | 72 | 329 | 0.0 | 1.7 | 0.00 | 0.43 | 0.00 | 97 | 1010.8 |
| 20260906072045 | 72 | 329 | 0.0 | 0.0 | 0.00 | 0.43 | 0.00 | 97 | 1010.8 |
| 20260906071541 | 72 | 329 | 0.0 | 1.7 | 0.00 | 0.43 | 0.00 | 97 | 1010.7 |
| 20260906071040 | 72 | 329 | 0.0 | 3.5 | 0.00 | 0.43 | 0.00 | 97 | 1010.7 |
| 20260906070540 | 72 | 329 | 0.0 | 3.5 | 0.00 | 0.43 | 0.00 | 97 | 1010.5 |
| 20260906070039 | 71 | 329 | 0.0 | 0.0 | 0.00 | 0.43 | 0.00 | 97 | 1010.6 |
| 20260906065538 | 71 | 329 | 0.0 | 0.0 | 0.00 | 0.43 | 0.00 | 97 | 1010.6 |
| 20260906065038 | 71 | 329 | 0.0 | 0.0 | 0.00 | 0.43 | 0.00 | 97 | 1010.6 |
| 20260906064537 | 71 | 329 | 0.0 | 0.0 | 0.00 | 0.43 | 0.00 | 97 | 1010.7 |
| 20260906064036 | 71 | 329 | 0.0 | 0.0 | 0.00 | 0.43 | 0.00 | 97 | 1010.9 |
| 20260906063537 | 71 | 329 | 0.0 | 0.0 | 0.00 | 0.43 | 0.00 | 97 | 1010.8 |
| 20260906063037 | 71 | 329 | 0.0 | 0.0 | 0.00 | 0.43 | 0.00 | 96 | 1010.8 |
| 20260906062537 | 71 | 329 | 0.0 | 0.0 | 0.00 | 0.43 | 0.00 | 97 | 1010.8 |
| 20260906062037 | 71 | 329 | 0.0 | 0.0 | 0.00 | 0.43 | 0.00 | 97 | 1010.9 |
| 20260906061536 | 71 | 329 | 0.0 | 0.0 | 0.00 | 0.43 | 0.00 | 96 | 1010.9 |
| 20260906061036 | 71 | 329 | 0.0 | 0.0 | 0.00 | 0.43 | 0.00 | 96 | 1010.9 |
| 20260906060535 | 71 | 329 | 0.0 | 0.0 | 0.00 | 0.43 | 0.00 | 96 | 1010.9 |
| 20260906060035 | 71 | 329 | 0.0 | 0.0 | 0.00 | 0.43 | 0.00 | 96 | 1010.7 |
| 20260906055535 | 71 | 329 | 0.0 | 0.0 | 0.00 | 0.43 | 0.00 | 96 | 1010.9 |
| 20260906055035 | 71 | 329 | 0.0 | 0.0 | 0.00 | 0.43 | 0.00 | 96 | 1010.9 |
| 20260906054536 | 71 | 329 | 0.0 | 0.0 | 0.00 | 0.43 | 0.00 | 96 | 1011.0 |
| 20260906054035 | 71 | 329 | 0.0 | 0.0 | 0.00 | 0.43 | 0.00 | 96 | 1010.9 |
| 20260906053532 | 71 | 329 | 0.0 | 0.0 | 0.00 | 0.43 | 0.00 | 96 | 1011.0 |
| 20260906053035 | 71 | 329 | 0.0 | 0.0 | 0.00 | 0.43 | 0.00 | 96 | 1011.1 |
| 20260906052533 | 71 | 329 | 0.0 | 0.0 | 0.00 | 0.43 | 0.00 | 96 | 1011.1 |
| 20260906052032 | 72 | 329 | 0.0 | 0.0 | 0.00 | 0.43 | 0.00 | 96 | 1011.2 |
| 20260906051532 | 71 | 329 | 0.0 | 0.0 | 0.00 | 0.43 | 0.00 | 96 | 1011.1 |
| 20260906051031 | 71 | 329 | 0.0 | 0.0 | 0.00 | 0.43 | 0.00 | 96 | 1011.0 |
| 20260906050529 | 72 | 329 | 0.0 | 0.0 | 0.00 | 0.43 | 0.00 | 96 | 1011.1 |
| 20260906050033 | 72 | 329 | 0.0 | 0.0 | 0.00 | 0.43 | 0.00 | 96 | 1010.9 |
| 20260906045527 | 72 | 329 | 0.0 | 0.0 | 0.00 | 0.43 | 0.00 | 96 | 1010.7 |
| 20260906045028 | 72 | 329 | 0.0 | 0.0 | 0.00 | 0.43 | 0.00 | 96 | 1010.9 |
| 20260906044534 | 72 | 329 | 0.0 | 0.0 | 0.00 | 0.43 | 0.00 | 96 | 1010.7 |
| 20260906044022 | 72 | 329 | 0.0 | 0.0 | 0.00 | 0.43 | 0.00 | 96 | 1010.6 |
| 20260906043523 | 72 | 329 | 0.0 | 0.0 | 0.00 | 0.43 | 0.00 | 96 | 1010.6 |
| 20260906043020 | 72 | 329 | 0.0 | 0.0 | 0.00 | 0.43 | 0.00 | 96 | 1010.7 |
| 20260906042518 | 72 | 329 | 0.0 | 0.0 | 0.00 | 0.43 | 0.00 | 96 | 1010.6 |
| 20260906042017 | 72 | 329 | 0.0 | 0.0 | 0.00 | 0.43 | 0.00 | 96 | 1010.8 |
| 20260906041515 | 72 | 329 | 0.0 | 0.0 | 0.00 | 0.43 | 0.00 | 96 | 1010.9 |
| 20260906041015 | 72 | 329 | 0.0 | 0.0 | 0.00 | 0.43 | 0.00 | 96 | 1010.6 |
| 20260906040514 | 72 | 329 | 0.0 | 0.0 | 0.00 | 0.43 | 0.00 | 96 | 1010.5 |
| 20260906040016 | 72 | 329 | 0.0 | 0.0 | 0.00 | 0.43 | 0.43 | 96 | 1010.4 |
| 20260906035510 | 72 | 329 | 0.0 | 0.0 | 0.00 | 0.43 | 0.43 | 96 | 1010.6 |
| 20260906035011 | 73 | 329 | 0.0 | 0.0 | 0.00 | 0.43 | 0.43 | 96 | 1010.6 |
| 20260906034515 | 73 | 329 | 0.0 | 0.0 | 0.00 | 0.43 | 0.43 | 96 | 1010.8 |
| 20260906034011 | 73 | 329 | 0.0 | 0.0 | 0.00 | 0.43 | 0.43 | 96 | 1010.8 |
| 20260906033510 | 73 | 329 | 0.0 | 0.0 | 0.00 | 0.43 | 0.43 | 96 | 1010.6 |
| 20260906033026 | 73 | 329 | 0.0 | 0.0 | 0.00 | 0.43 | 0.43 | 96 | 1010.8 |
| 20260906032510 | 73 | 329 | 0.0 | 0.0 | 0.00 | 0.43 | 0.43 | 96 | 1010.9 |
| 20260906032010 | 73 | 329 | 0.0 | 0.0 | 0.00 | 0.43 | 0.43 | 96 | 1011.1 |
| 20260906031513 | 73 | 329 | 0.0 | 0.0 | 0.00 | 0.43 | 0.43 | 96 | 1010.9 |
| 20260906031009 | 73 | 329 | 0.0 | 0.0 | 0.00 | 0.43 | 0.43 | 96 | 1010.8 |
| 20260906030510 | 73 | 329 | 0.0 | 0.0 | 0.00 | 0.43 | 0.43 | 95 | 1011.1 |
| 20260906030013 | 73 | 329 | 0.0 | 0.0 | 0.00 | 0.43 | 0.43 | 96 | 1011.3 |
| 20260906025509 | 73 | 329 | 0.0 | 0.0 | 0.00 | 0.43 | 0.43 | 95 | 1011.3 |
| 20260906025012 | 73 | 329 | 0.0 | 0.0 | 0.00 | 0.43 | 0.43 | 95 | 1011.4 |
| 20260906024509 | 73 | 329 | 0.0 | 0.0 | 0.00 | 0.43 | 0.43 | 95 | 1011.7 |
| 20260906024012 | 73 | 329 | 0.0 | 0.0 | 0.00 | 0.43 | 0.43 | 95 | 1011.3 |
| 20260906023509 | 73 | 329 | 0.0 | 0.0 | 0.00 | 0.43 | 0.43 | 95 | 1011.3 |
| 20260906023008 | 73 | 329 | 0.0 | 0.0 | 0.00 | 0.43 | 0.43 | 95 | 1011.4 |
| 20260906022509 | 73 | 329 | 0.0 | 0.0 | 0.00 | 0.43 | 0.43 | 95 | 1011.4 |
| 20260906022010 | 73 | 329 | 0.0 | 0.0 | 0.00 | 0.43 | 0.43 | 95 | 1011.5 |
| 20260906021508 | 73 | 329 | 0.0 | 0.0 | 0.00 | 0.43 | 0.43 | 95 | 1011.3 |
| 20260906021007 | 73 | 329 | 0.0 | 0.0 | 0.00 | 0.43 | 0.43 | 95 | 1011.1 |
| 20260906020507 | 73 | 329 | 0.0 | 0.0 | 0.00 | 0.43 | 0.43 | 95 | 1011.1 |
| 20260906020008 | 73 | 329 | 0.0 | 0.0 | 0.00 | 0.43 | 0.43 | 95 | 1011.1 |
| 20260906015507 | 73 | 329 | 0.0 | 0.0 | 0.00 | 0.43 | 0.43 | 95 | 1011.2 |
| 20260906015007 | 73 | 329 | 0.0 | 0.0 | 0.00 | 0.43 | 0.43 | 95 | 1011.0 |
| 20260906014507 | 73 | 329 | 0.0 | 0.0 | 0.00 | 0.43 | 0.43 | 94 | 1011.1 |
| 20260906014006 | 74 | 329 | 0.0 | 0.0 | 0.00 | 0.43 | 0.43 | 94 | 1011.0 |
| 20260906013507 | 74 | 329 | 0.0 | 0.0 | 0.00 | 0.43 | 0.43 | 94 | 1010.9 |
| 20260906013012 | 74 | 329 | 0.0 | 0.0 | 0.00 | 0.43 | 0.43 | 94 | 1010.7 |
| 20260906012508 | 74 | 329 | 0.0 | 0.0 | 0.00 | 0.43 | 0.43 | 94 | 1010.5 |
| 20260906012009 | 74 | 329 | 0.0 | 0.0 | 0.00 | 0.43 | 0.43 | 94 | 1010.3 |
| 20260906011508 | 74 | 329 | 0.0 | 0.0 | 0.00 | 0.43 | 0.43 | 94 | 1010.3 |
| 20260906011005 | 74 | 329 | 0.0 | 0.0 | 0.00 | 0.43 | 0.43 | 94 | 1010.1 |
| 20260906010505 | 74 | 329 | 0.0 | 0.0 | 0.00 | 0.43 | 0.43 | 94 | 1010.1 |
| 20260906010005 | 74 | 329 | 0.0 | 0.0 | 0.00 | 0.43 | 0.43 | 93 | 1010.0 |
| 20260906005505 | 75 | 329 | 0.0 | 0.0 | 0.00 | 0.43 | 0.43 | 94 | 1010.0 |
| 20260906005005 | 75 | 329 | 0.0 | 0.0 | 0.00 | 0.43 | 0.43 | 93 | 1010.0 |
| 20260906004505 | 75 | 329 | 0.0 | 0.0 | 0.00 | 0.43 | 0.43 | 93 | 1010.2 |
| 20260906004004 | 75 | 329 | 0.0 | 0.0 | 0.00 | 0.43 | 0.43 | 93 | 1010.1 |
| 20260906003505 | 75 | 329 | 0.0 | 0.0 | 0.00 | 0.43 | 0.43 | 93 | 1010.0 |
| 20260906003006 | 75 | 329 | 0.0 | 0.0 | 0.00 | 0.43 | 0.43 | 92 | 1010.0 |
| 20260906002507 | 75 | 329 | 0.0 | 0.0 | 0.00 | 0.43 | 0.43 | 92 | 1010.0 |
| 20260906002004 | 75 | 329 | 0.0 | 0.0 | 0.00 | 0.43 | 0.43 | 92 | 1009.9 |
| 20260906001504 | 76 | 329 | 0.0 | 0.0 | 0.00 | 0.43 | 0.43 | 91 | 1010.0 |
| 20260906001003 | 76 | 329 | 0.0 | 0.0 | 0.00 | 0.43 | 0.43 | 91 | 1009.9 |
| 20260906000504 | 76 | 329 | 0.0 | 0.0 | 0.00 | 0.43 | 0.43 | 91 | 1010.1 |
| 20260906000004 | 77 | 329 | 0.0 | 0.0 | 0.00 | 0.43 | 0.43 | 91 | 1010.0 |
| 20260905235503 | 77 | 329 | 0.0 | 0.0 | 0.00 | 0.43 | 0.43 | 90 | 1010.2 |
| 20260905235006 | 77 | 329 | 0.0 | 0.0 | 0.00 | 0.43 | 0.43 | 89 | 1010.3 |
| 20260905234505 | 78 | 329 | 0.0 | 0.0 | 0.00 | 0.43 | 0.43 | 89 | 1010.2 |
| 20260905234003 | 78 | 329 | 0.0 | 0.0 | 0.00 | 0.43 | 0.43 | 88 | 1010.3 |
| 20260905233503 | 78 | 329 | 0.0 | 0.0 | 0.00 | 0.43 | 0.43 | 87 | 1010.3 |
| 20260905233003 | 79 | 329 | 0.0 | 0.0 | 0.00 | 0.43 | 0.43 | 87 | 1010.4 |
| 20260905232503 | 79 | 329 | 0.0 | 0.0 | 0.00 | 0.43 | 0.43 | 86 | 1010.4 |
| 20260905232004 | 80 | 329 | 0.0 | 0.0 | 0.00 | 0.43 | 0.43 | 86 | 1010.4 |
| 20260905231503 | 80 | 329 | 0.0 | 0.0 | 0.00 | 0.43 | 0.43 | 85 | 1010.4 |
| 20260905231002 | 80 | 329 | 0.0 | 0.0 | 0.00 | 0.43 | 0.43 | 85 | 1010.4 |
| 20260905230506 | 80 | 329 | 0.0 | 0.0 | 0.00 | 0.43 | 0.43 | 86 | 1010.4 |
| 20260905230004 | 80 | 329 | 0.0 | 0.0 | 0.00 | 0.43 | 0.43 | 85 | 1010.4 |
| 20260905225503 | 81 | 329 | 0.0 | 0.9 | 0.00 | 0.43 | 0.43 | 85 | 1010.2 |
| 20260905225002 | 81 | 329 | 0.0 | 0.9 | 0.00 | 0.43 | 0.43 | 84 | 1010.3 |
| 20260905224504 | 81 | 329 | 0.0 | 0.0 | 0.00 | 0.43 | 0.43 | 84 | 1010.2 |
| 20260905224001 | 81 | 329 | 0.0 | 0.0 | 0.00 | 0.43 | 0.43 | 84 | 1010.2 |
| 20260905223502 | 81 | 329 | 0.0 | 0.0 | 0.00 | 0.43 | 0.43 | 84 | 1010.4 |
| 20260905223002 | 81 | 329 | 0.0 | 0.0 | 0.00 | 0.43 | 0.43 | 83 | 1010.4 |
| 20260905222501 | 81 | 329 | 0.0 | 0.0 | 0.00 | 0.43 | 0.43 | 83 | 1010.3 |
| 20260905222000 | 81 | 329 | 0.0 | 0.0 | 0.00 | 0.43 | 0.43 | 82 | 1010.3 |
| 20260905221606 | 81 | 329 | 0.0 | 0.0 | 0.00 | 0.43 | 0.43 | 82 | 1010.3 |
| 20260905221100 | 82 | 329 | 0.0 | 1.7 | 0.00 | 0.43 | 0.43 | 80 | 1010.4 |
| 20260905220600 | 84 | 329 | 0.0 | 1.7 | 0.00 | 0.43 | 0.43 | 75 | 1010.3 |
| 20260905220108 | 84 | 329 | 0.0 | 2.6 | 0.00 | 0.43 | 0.43 | 72 | 1010.2 |
| 20260905215559 | 84 | 325 | 0.0 | 2.6 | 0.00 | 0.43 | 0.43 | 72 | 1010.1 |
| 20260905215100 | 84 | 325 | 0.0 | 0.9 | 0.00 | 0.43 | 0.43 | 72 | 1010.2 |
| 20260905214559 | 85 | 325 | 0.0 | 2.6 | 0.00 | 0.43 | 0.43 | 70 | 1010.1 |
| 20260905214059 | 85 | 325 | 0.0 | 3.5 | 0.00 | 0.43 | 0.43 | 69 | 1010.1 |
| 20260905213559 | 86 | 313 | 0.9 | 3.5 | 0.00 | 0.43 | 0.43 | 68 | 1010.1 |
| 20260905213058 | 86 | 310 | 0.0 | 1.7 | 0.00 | 0.43 | 0.43 | 69 | 1010.2 |
| 20260905212558 | 86 | 311 | 0.0 | 1.7 | 0.00 | 0.43 | 0.43 | 69 | 1010.0 |
| 20260905212057 | 85 | 311 | 0.0 | 1.7 | 0.00 | 0.43 | 0.43 | 67 | 1010.0 |
| 20260905211628 | 85 | 319 | 0.0 | 3.5 | 0.00 | 0.43 | 0.43 | 69 | 1010.1 |
| 20260905211057 | 85 | 319 | 0.9 | 3.5 | 0.00 | 0.43 | 0.43 | 67 | 1009.9 |
| 20260905210557 | 85 | 301 | 0.0 | 0.9 | 0.00 | 0.43 | 0.43 | 67 | 1009.8 |
| 20260905210057 | 85 | 309 | 0.0 | 2.6 | 0.00 | 0.43 | 0.43 | 69 | 1009.9 |
| 20260905205556 | 85 | 309 | 0.0 | 0.9 | 0.00 | 0.43 | 0.43 | 69 | 1009.7 |
| 20260905205057 | 84 | 309 | 0.0 | 3.5 | 0.00 | 0.43 | 0.43 | 69 | 1009.9 |
| 20260905204602 | 84 | 309 | 0.0 | 3.5 | 0.00 | 0.43 | 0.43 | 67 | 1009.9 |
| 20260905204057 | 85 | 304 | 0.0 | 4.3 | 0.00 | 0.43 | 0.43 | 67 | 1009.7 |
| 20260905203555 | 85 | 309 | 0.9 | 4.3 | 0.00 | 0.43 | 0.43 | 68 | 1009.8 |
| 20260905203114 | 85 | 327 | 0.0 | 5.2 | 0.00 | 0.43 | 0.43 | 71 | 1010.1 |
| 20260905202554 | 85 | 328 | 0.0 | 5.2 | 0.00 | 0.43 | 0.43 | 71 | 1010.1 |
| 20260905202053 | 84 | 320 | 0.0 | 3.5 | 0.00 | 0.43 | 0.43 | 73 | 1010.3 |
| 20260905201557 | 83 | 315 | 0.0 | 5.2 | 0.00 | 0.43 | 0.43 | 73 | 1010.2 |
| 20260905201054 | 84 | 316 | 0.0 | 5.2 | 0.00 | 0.43 | 0.43 | 70 | 1010.4 |
| 20260905200551 | 84 | 333 | 1.7 | 5.2 | 0.00 | 0.43 | 0.43 | 69 | 1010.4 |
| 20260905200057 | 85 | 326 | 0.9 | 5.2 | 0.00 | 0.43 | 0.43 | 69 | 1010.5 |
| 20260905195551 | 85 | 338 | 2.6 | 5.2 | 0.00 | 0.43 | 0.43 | 68 | 1010.5 |
| 20260905195050 | 85 | 326 | 0.0 | 3.5 | 0.00 | 0.43 | 0.43 | 69 | 1010.6 |
| 20260905194550 | 85 | 325 | 0.0 | 4.3 | 0.00 | 0.43 | 0.43 | 69 | 1010.6 |
| 20260905194049 | 85 | 319 | 0.0 | 4.3 | 0.00 | 0.43 | 0.43 | 69 | 1010.6 |
| 20260905193548 | 84 | 340 | 0.0 | 4.3 | 0.00 | 0.43 | 0.43 | 72 | 1010.6 |
| 20260905193048 | 84 | 340 | 0.0 | 3.5 | 0.00 | 0.43 | 0.43 | 72 | 1010.7 |
| 20260905192548 | 84 | 342 | 0.9 | 3.5 | 0.00 | 0.43 | 0.43 | 71 | 1010.8 |
| 20260905192048 | 84 | 321 | 0.9 | 3.5 | 0.00 | 0.43 | 0.43 | 71 | 1010.8 |
| 20260905191548 | 85 | 36 | 0.0 | 1.7 | 0.00 | 0.43 | 0.43 | 72 | 1010.8 |
| 20260905191047 | 84 | 55 | 0.0 | 2.6 | 0.00 | 0.43 | 0.43 | 71 | 1010.8 |
| 20260905190546 | 84 | 74 | 0.0 | 1.7 | 0.00 | 0.43 | 0.43 | 72 | 1011.0 |
| 20260905190046 | 84 | 80 | 0.0 | 0.9 | 0.00 | 0.50 | 0.43 | 70 | 1011.1 |
| 20260905185548 | 84 | 80 | 0.0 | 0.9 | 0.00 | 0.50 | 0.43 | 71 | 1011.1 |
| 20260905185045 | 84 | 80 | 0.0 | 1.7 | 0.00 | 0.50 | 0.43 | 71 | 1011.2 |
| 20260905184544 | 83 | 79 | 0.0 | 1.7 | 0.00 | 0.50 | 0.43 | 72 | 1011.3 |
| 20260905184043 | 83 | 79 | 0.0 | 3.5 | 0.00 | 0.50 | 0.43 | 72 | 1011.3 |
| 20260905183543 | 83 | 74 | 0.0 | 3.5 | 0.00 | 0.50 | 0.43 | 72 | 1011.5 |
| 20260905183043 | 83 | 73 | 0.0 | 1.7 | 0.00 | 0.50 | 0.43 | 74 | 1011.6 |
| 20260905182542 | 83 | 74 | 0.0 | 1.7 | 0.00 | 0.50 | 0.43 | 76 | 1011.4 |
| 20260905182042 | 82 | 73 | 0.0 | 0.9 | 0.00 | 0.50 | 0.43 | 75 | 1011.8 |
| 20260905181559 | 83 | 74 | 0.0 | 2.6 | 0.00 | 0.50 | 0.43 | 76 | 1011.7 |
| 20260905181040 | 82 | 74 | 0.0 | 2.6 | 0.00 | 0.50 | 0.43 | 76 | 1011.7 |
| 20260905180539 | 82 | 63 | 0.0 | 2.6 | 0.00 | 0.50 | 0.43 | 75 | 1011.7 |
| 20260905180038 | 81 | 57 | 0.0 | 2.6 | 0.00 | 0.56 | 0.43 | 76 | 1011.8 |
| 20260905175537 | 81 | 54 | 0.0 | 2.6 | 0.00 | 0.56 | 0.43 | 76 | 1011.8 |
| 20260905175041 | 81 | 53 | 0.0 | 2.6 | 0.00 | 0.56 | 0.43 | 76 | 1011.8 |
| 20260905174545 | 81 | 15 | 0.0 | 0.0 | 0.00 | 0.56 | 0.43 | 78 | 1011.8 |
| 20260905174035 | 80 | 13 | 0.0 | 0.9 | 0.00 | 0.56 | 0.43 | 79 | 1012.1 |
| 20260905173535 | 80 | 13 | 0.0 | 1.7 | 0.00 | 0.56 | 0.43 | 79 | 1011.9 |
| 20260905173035 | 80 | 10 | 0.0 | 1.7 | 0.00 | 0.56 | 0.43 | 79 | 1012.0 |
| 20260905172536 | 80 | 165 | 0.0 | 0.9 | 0.00 | 0.56 | 0.43 | 81 | 1012.1 |
| 20260905172035 | 79 | 168 | 0.0 | 1.7 | 0.00 | 0.56 | 0.43 | 81 | 1012.4 |
| 20260905171540 | 80 | 168 | 0.0 | 2.6 | 0.00 | 0.56 | 0.43 | 80 | 1012.3 |
| 20260905171034 | 80 | 167 | 0.0 | 2.6 | 0.00 | 0.56 | 0.43 | 79 | 1012.4 |
| 20260905170533 | 80 | 115 | 0.0 | 0.9 | 0.00 | 0.56 | 0.43 | 85 | 1012.3 |
| 20260905170032 | 79 | 115 | 0.0 | 0.9 | 0.00 | 0.56 | 0.43 | 81 | 1012.4 |
| 20260905165535 | 79 | 80 | 0.0 | 1.7 | 0.00 | 0.56 | 0.43 | 81 | 1012.4 |
| 20260905165031 | 79 | 80 | 0.0 | 1.7 | 0.00 | 0.56 | 0.43 | 82 | 1012.7 |
| 20260905164536 | 79 | 127 | 0.0 | 0.0 | 0.00 | 0.56 | 0.43 | 82 | 1012.5 |
| 20260905164032 | 79 | 127 | 0.0 | 1.7 | 0.00 | 0.56 | 0.43 | 84 | 1012.5 |
| 20260905163531 | 79 | 127 | 0.0 | 1.7 | 0.00 | 0.56 | 0.43 | 82 | 1012.6 |
| 20260905163030 | 79 | 108 | 0.0 | 2.6 | 0.00 | 0.56 | 0.43 | 84 | 1012.6 |
| 20260905162529 | 79 | 79 | 0.0 | 0.9 | 0.00 | 0.56 | 0.43 | 84 | 1012.6 |
| 20260905162029 | 78 | 79 | 0.0 | 0.9 | 0.00 | 0.56 | 0.43 | 83 | 1013.0 |
| 20260905161529 | 78 | 79 | 0.0 | 1.7 | 0.00 | 0.56 | 0.43 | 81 | 1012.9 |
| 20260905161028 | 78 | 80 | 0.0 | 2.6 | 0.00 | 0.56 | 0.43 | 85 | 1013.2 |
| 20260905160527 | 78 | 79 | 0.0 | 2.6 | 0.00 | 0.56 | 0.43 | 85 | 1013.0 |
| 20260905160046 | 78 | 99 | 0.0 | 1.7 | 0.00 | 0.56 | 0.43 | 84 | 1012.9 |
| 20260905155527 | 78 | 98 | 0.0 | 4.3 | 0.00 | 0.56 | 0.43 | 84 | 1012.9 |
| 20260905155027 | 78 | 150 | 0.0 | 4.3 | 0.00 | 0.56 | 0.43 | 87 | 1013.0 |
| 20260905154525 | 77 | 161 | 0.0 | 1.7 | 0.00 | 0.56 | 0.43 | 86 | 1013.1 |
| 20260905154024 | 77 | 111 | 0.0 | 0.0 | 0.00 | 0.56 | 0.43 | 86 | 1013.1 |
| 20260905153525 | 77 | 111 | 0.0 | 1.7 | 0.00 | 0.56 | 0.43 | 88 | 1012.3 |
| 20260905153023 | 76 | 111 | 0.0 | 2.6 | 0.00 | 0.56 | 0.43 | 88 | 1012.4 |
| 20260905152521 | 76 | 102 | 0.0 | 0.0 | 0.00 | 0.56 | 0.43 | 91 | 1011.9 |
| 20260905152020 | 76 | 102 | 0.0 | 3.5 | 0.00 | 0.56 | 0.43 | 90 | 1012.2 |
| 20260905151519 | 76 | 338 | 0.0 | 4.3 | 0.00 | 0.56 | 0.43 | 90 | 1012.4 |
| 20260905151016 | 76 | 337 | 0.0 | 4.3 | 0.00 | 0.56 | 0.43 | 90 | 1012.5 |
| 20260905150515 | 76 | 279 | 0.0 | 1.7 | 0.00 | 0.56 | 0.43 | 91 | 1012.7 |
| 20260905150014 | 75 | 279 | 0.0 | 0.0 | 0.00 | 0.56 | 0.43 | 91 | 1012.4 |
| 20260905145512 | 75 | 279 | 0.0 | 1.7 | 0.00 | 0.56 | 0.43 | 91 | 1012.2 |
| 20260905145016 | 75 | 279 | 0.0 | 1.7 | 0.00 | 0.56 | 0.43 | 91 | 1012.3 |
| 20260905144513 | 74 | 76 | 0.0 | 1.7 | 0.00 | 0.56 | 0.43 | 92 | 1012.2 |
| 20260905144014 | 75 | 103 | 0.0 | 2.6 | 0.00 | 0.56 | 0.43 | 93 | 1012.1 |
| 20260905143509 | 74 | 102 | 0.0 | 2.6 | 0.00 | 0.56 | 0.43 | 93 | 1011.9 |
| 20260905143009 | 74 | 350 | 0.0 | 2.6 | 0.00 | 0.56 | 0.43 | 92 | 1012.1 |
| 20260905142509 | 74 | 360 | 0.0 | 0.0 | 0.00 | 0.56 | 0.43 | 93 | 1012.3 |
| 20260905142009 | 74 | 360 | 0.0 | 0.0 | 0.00 | 0.56 | 0.43 | 94 | 1012.2 |
| 20260905141508 | 74 | 360 | 0.0 | 0.0 | 0.00 | 0.56 | 0.43 | 94 | 1012.1 |
| 20260905141009 | 74 | 360 | 0.0 | 0.0 | 0.00 | 0.56 | 0.43 | 95 | 1012.4 |
| 20260905140507 | 74 | 360 | 0.0 | 0.0 | 0.00 | 0.56 | 0.43 | 95 | 1012.5 |
| 20260905140007 | 73 | 360 | 0.0 | 0.0 | 0.00 | 0.56 | 0.43 | 95 | 1012.7 |
| 20260905135506 | 73 | 360 | 0.0 | 0.0 | 0.02 | 0.56 | 0.43 | 95 | 1012.9 |
| 20260905135006 | 73 | 360 | 0.0 | 0.0 | 0.18 | 0.56 | 0.43 | 95 | 1012.9 |
| 20260905134505 | 73 | 360 | 0.0 | 0.0 | 0.18 | 0.56 | 0.43 | 96 | 1013.1 |
| 20260905134009 | 73 | 360 | 0.0 | 0.0 | 0.18 | 0.56 | 0.43 | 96 | 1013.1 |
| 20260905133504 | 72 | 360 | 0.0 | 0.0 | 0.18 | 0.56 | 0.43 | 96 | 1013.3 |
| 20260905133005 | 72 | 360 | 0.0 | 0.0 | 0.18 | 0.56 | 0.43 | 96 | 1013.4 |
| 20260905132502 | 72 | 360 | 0.0 | 0.0 | 0.18 | 0.56 | 0.43 | 96 | 1013.7 |
| 20260905132202 | 72 | 360 | 0.0 | 0.0 | 0.18 | 0.56 | 0.43 | 96 | 1013.9 |
| 20260905131605 | 72 | 360 | 0.0 | 0.0 | 0.18 | 0.56 | 0.43 | 96 | 1013.7 |
| 20260905131058 | 72 | 360 | 0.0 | 0.0 | 0.18 | 0.56 | 0.43 | 96 | 1013.7 |
| 20260905130557 | 72 | 360 | 0.0 | 0.0 | 0.33 | 0.56 | 0.43 | 95 | 1013.6 |
| 20260905130057 | 72 | 360 | 0.0 | 0.0 | 0.43 | 0.56 | 0.43 | 95 | 1013.8 |
| 20260905125557 | 72 | 360 | 0.0 | 0.9 | 0.41 | 0.54 | 0.41 | 95 | 1013.9 |
| 20260905125055 | 72 | 360 | 0.0 | 0.9 | 0.25 | 0.38 | 0.25 | 95 | 1013.8 |
| 20260905124556 | 72 | 360 | 0.0 | 0.0 | 0.25 | 0.38 | 0.25 | 95 | 1013.5 |
| 20260905124054 | 72 | 360 | 0.0 | 0.0 | 0.25 | 0.38 | 0.25 | 95 | 1013.2 |
| 20260905123554 | 72 | 360 | 0.0 | 0.0 | 0.25 | 0.38 | 0.25 | 94 | 1013.4 |
| 20260905123054 | 72 | 360 | 0.0 | 0.0 | 0.25 | 0.38 | 0.25 | 93 | 1013.3 |
| 20260905122553 | 73 | 360 | 0.0 | 0.0 | 0.25 | 0.38 | 0.25 | 93 | 1013.5 |
| 20260905122051 | 73 | 360 | 0.0 | 4.3 | 0.25 | 0.38 | 0.25 | 93 | 1013.5 |
| 20260905121551 | 73 | 360 | 0.9 | 7.0 | 0.25 | 0.38 | 0.25 | 93 | 1013.5 |